Time,TemperatureF,DewpointF,PressureIn,WindDirection,WindDirectionDegrees,WindSpeedMPH,WindSpeedGustMPH,Humidity,HourlyPrecipIn,Conditions,Clouds,dailyrainin,SolarRadiationWatts/m^2,SoftwareType,DateUTC
2017-04-23 00:04:00,46.9,30.2,29.75,SSE,160,0.9,1.0,52,0.00,,,0.00,0.0,meteobridge,2017-04-23 08:04:00,
2017-04-23 00:09:00,47.1,30.9,29.75,SSE,160,0.0,0.0,53,0.00,,,0.00,0.0,meteobridge,2017-04-23 08:09:00,
2017-04-23 00:14:00,47.1,30.4,29.75,SSE,160,0.0,1.0,52,0.00,,,0.00,0.0,meteobridge,2017-04-23 08:14:00,
2017-04-23 00:19:00,47.1,30.9,29.75,SSE,160,0.9,2.0,53,0.00,,,0.00,0.0,meteobridge,2017-04-23 08:19:00,
2017-04-23 00:24:00,47.1,29.8,29.75,SSE,160,0.0,1.0,51,0.00,,,0.00,0.0,meteobridge,2017-04-23 08:24:00,
2017-04-23 00:29:00,47.1,30.9,29.75,SSE,160,0.0,0.0,53,0.00,,,0.00,0.0,meteobridge,2017-04-23 08:29:00,
2017-04-23 00:34:00,47.1,30.4,29.75,SSE,160,0.0,0.0,52,0.00,,,0.00,0.0,meteobridge,2017-04-23 08:34:00,
2017-04-23 00:39:00,47.1,30.9,29.75,SSE,160,0.0,0.0,53,0.00,,,0.00,0.0,meteobridge,2017-04-23 08:39:00,
2017-04-23 00:44:00,46.9,30.2,29.75,SSE,160,0.0,0.0,52,0.00,,,0.00,0.0,meteobridge,2017-04-23 08:44:00,
2017-04-23 00:49:00,46.9,30.7,29.75,SSE,160,0.0,0.0,53,0.00,,,0.00,0.0,meteobridge,2017-04-23 08:49:00,
2017-04-23 00:54:00,46.8,29.7,29.74,SSE,160,0.0,0.0,51,0.00,,,0.00,0.0,meteobridge,2017-04-23 08:54:00,
2017-04-23 00:59:00,46.8,29.7,29.75,SSE,160,0.0,0.0,51,0.00,,,0.00,0.0,meteobridge,2017-04-23 08:59:00,
2017-04-23 01:04:00,46.8,29.7,29.75,SSE,160,0.0,0.0,51,0.00,,,0.00,0.0,meteobridge,2017-04-23 09:04:00,
2017-04-23 01:10:00,46.8,29.7,29.74,SSE,160,0.0,0.0,51,0.00,,,0.00,0.0,meteobridge,2017-04-23 09:10:00,
2017-04-23 01:15:00,46.8,29.7,29.74,SSE,160,0.0,0.0,51,0.00,,,0.00,0.0,meteobridge,2017-04-23 09:15:00,
2017-04-23 01:20:00,46.6,29.5,29.74,SSE,160,0.0,0.0,51,0.00,,,0.00,0.0,meteobridge,2017-04-23 09:20:00,
2017-04-23 01:25:00,46.6,29.5,29.75,SSE,160,0.0,0.0,51,0.00,,,0.00,0.0,meteobridge,2017-04-23 09:25:00,
2017-04-23 01:30:00,46.6,29.5,29.75,SSE,160,0.0,0.0,51,0.00,,,0.00,0.0,meteobridge,2017-04-23 09:30:00,
2017-04-23 01:35:00,46.8,30.0,29.74,SSE,158,0.0,2.0,52,0.00,,,0.00,0.0,meteobridge,2017-04-23 09:35:00,
2017-04-23 01:40:00,46.8,30.6,29.74,SSE,158,0.0,0.0,53,0.00,,,0.00,0.0,meteobridge,2017-04-23 09:40:00,
2017-04-23 01:45:00,46.8,29.7,29.74,SSE,158,0.0,0.0,51,0.00,,,0.00,0.0,meteobridge,2017-04-23 09:45:00,
2017-04-23 01:50:00,46.6,29.5,29.74,SSE,158,0.0,0.0,51,0.00,,,0.00,0.0,meteobridge,2017-04-23 09:50:00,
2017-04-23 01:55:00,46.6,29.8,29.74,SSE,158,0.0,1.0,52,0.00,,,0.00,0.0,meteobridge,2017-04-23 09:55:00,
2017-04-23 02:00:00,46.4,30.2,29.74,SSE,158,0.0,0.0,53,0.00,,,0.00,0.0,meteobridge,2017-04-23 10:00:00,
2017-04-23 02:05:00,46.2,30.0,29.74,SSE,158,0.0,0.0,53,0.00,,,0.00,0.0,meteobridge,2017-04-23 10:05:00,
2017-04-23 02:10:00,46.0,30.4,29.74,SSE,158,0.0,1.0,54,0.00,,,0.00,0.0,meteobridge,2017-04-23 10:10:00,
2017-04-23 02:15:00,45.9,30.2,29.74,SSE,158,0.0,1.0,54,0.00,,,0.00,0.0,meteobridge,2017-04-23 10:15:00,
2017-04-23 02:20:00,45.7,30.4,29.74,SSE,158,0.0,1.0,55,0.00,,,0.00,0.0,meteobridge,2017-04-23 10:20:00,
2017-04-23 02:25:00,45.7,30.9,29.74,SSE,158,0.0,2.0,56,0.00,,,0.00,0.0,meteobridge,2017-04-23 10:25:00,
2017-04-23 02:30:00,45.5,30.7,29.74,SSE,158,0.9,1.0,56,0.00,,,0.00,0.0,meteobridge,2017-04-23 10:30:00,
2017-04-23 02:35:00,45.3,30.6,29.74,SSE,158,0.9,1.0,56,0.00,,,0.00,0.0,meteobridge,2017-04-23 10:35:00,
2017-04-23 02:40:00,45.3,30.9,29.74,SSE,158,0.0,1.0,57,0.00,,,0.00,0.0,meteobridge,2017-04-23 10:40:00,
2017-04-23 02:45:00,45.3,30.9,29.74,SSE,158,0.0,0.0,57,0.00,,,0.00,0.0,meteobridge,2017-04-23 10:45:00,
2017-04-23 02:51:00,45.1,30.7,29.74,SSE,158,0.0,1.0,57,0.00,,,0.00,0.0,meteobridge,2017-04-23 10:51:00,
2017-04-23 02:56:00,45.1,30.7,29.74,SSE,158,0.0,0.0,57,0.00,,,0.00,0.0,meteobridge,2017-04-23 10:56:00,
2017-04-23 03:01:00,45.1,30.4,29.74,SSE,158,0.0,0.0,56,0.00,,,0.00,0.0,meteobridge,2017-04-23 11:01:00,
2017-04-23 03:06:00,45.3,29.7,29.73,SSE,158,0.0,0.0,54,0.00,,,0.00,0.0,meteobridge,2017-04-23 11:06:00,
2017-04-23 03:11:00,45.7,29.5,29.73,SSE,158,0.0,0.0,53,0.00,,,0.00,0.0,meteobridge,2017-04-23 11:11:00,
2017-04-23 03:16:00,45.7,29.1,29.73,SSE,158,0.0,0.0,52,0.00,,,0.00,0.0,meteobridge,2017-04-23 11:16:00,
2017-04-23 03:21:00,45.9,30.2,29.74,SSE,158,0.0,0.0,54,0.00,,,0.00,0.0,meteobridge,2017-04-23 11:21:00,
2017-04-23 03:26:00,46.0,30.4,29.73,SSE,158,0.0,0.0,54,0.00,,,0.00,0.0,meteobridge,2017-04-23 11:26:00,
2017-04-23 03:31:00,46.0,29.5,29.73,SSE,158,0.0,0.0,52,0.00,,,0.00,0.0,meteobridge,2017-04-23 11:31:00,
2017-04-23 03:36:00,46.0,30.4,29.73,SSE,158,0.0,0.0,54,0.00,,,0.00,0.0,meteobridge,2017-04-23 11:36:00,
2017-04-23 03:41:00,46.0,29.8,29.73,SSE,158,0.0,0.0,53,0.00,,,0.00,0.0,meteobridge,2017-04-23 11:41:00,
2017-04-23 03:46:00,46.0,29.5,29.73,SSE,158,0.0,0.0,52,0.00,,,0.00,0.0,meteobridge,2017-04-23 11:46:00,
2017-04-23 03:51:00,46.0,29.8,29.73,SSE,158,0.0,0.0,53,0.00,,,0.00,0.0,meteobridge,2017-04-23 11:51:00,
2017-04-23 03:56:00,46.0,30.7,29.73,SSE,158,0.0,0.0,55,0.00,,,0.00,0.0,meteobridge,2017-04-23 11:56:00,
2017-04-23 04:01:00,45.9,30.6,29.73,SSE,158,0.0,1.0,55,0.00,,,0.00,0.0,meteobridge,2017-04-23 12:01:00,
2017-04-23 04:06:00,45.7,30.4,29.73,SSE,158,0.0,0.0,55,0.00,,,0.00,0.0,meteobridge,2017-04-23 12:06:00,
2017-04-23 04:11:00,45.7,29.5,29.73,SSE,158,0.9,1.0,53,0.00,,,0.00,0.0,meteobridge,2017-04-23 12:11:00,
2017-04-23 04:16:00,45.9,29.3,29.73,SSE,158,0.0,0.0,52,0.00,,,0.00,0.0,meteobridge,2017-04-23 12:16:00,
2017-04-23 04:21:00,46.0,29.8,29.73,SSE,158,0.0,0.0,53,0.00,,,0.00,0.0,meteobridge,2017-04-23 12:21:00,
2017-04-23 04:27:00,46.0,30.4,29.73,SSE,158,0.0,0.0,54,0.00,,,0.00,0.0,meteobridge,2017-04-23 12:27:00,
2017-04-23 04:32:00,46.0,29.5,29.73,SSE,158,0.0,0.0,52,0.00,,,0.00,0.0,meteobridge,2017-04-23 12:32:00,